sat.trackr.live / text

‹ back to catalog

STARLINK-34066

NORAD 63909 · 2025-095V

PAYLOAD ACTIVE UNKNOWN

§ Identity

Operator
Country
US
Launch date
2025-05-10
Launch site
AFETR
Launch vehicle
Mass (kg)
RCS (m²)

Purposes: comms

External: N2YO · Heavens-Above · Gunter

§ Orbital elements

Epoch: 2026-05-24T21:54:32.192640Z

Period
94.27 min
Inclination
42.9968°
Eccentricity
0.0000455
Mean motion
15.27589130 rev/d
Perigee alt
482.7 km
Apogee alt
483.3 km
Semi-major
6,861.2 km
B*
6.4708e-4
RAAN
105.8796°
Arg perigee
294.8106°
Mean anomaly
65.2698°
Rev number
5,943

§ Raw data

STARLINK-340661 63909U 25095V   26144.91287260  .00017592  00000+0  64708-3 0  99912 63909  42.9968 105.8796 0000455 294.8106  65.2698 15.27589130 59435

JSON: /api/v1/satellites/63909 · /tle

For live sub-satellite position, see the globe view (requires WebGL).

§ Visibility from observer

Set your observer location to see the next 7 days of passes ≥ 10°. The values pass through the URL so the page stays shareable.

No JS? Fill the form by hand. The geolocation button needs JavaScript.